Tamworth Airport
YSTW : now visible

Airfield :











YOU CAN JOIN US ON...

 
LOGIN :

Register | Disclaimer

   EN    FR    IT 

 









Legend :    VFR   Marginal VFR   IFR   Intensive IFR   Very Intensive IFR
Visi :
Ceiling :
>= 8 km
>= 3000ft
5 to 8 km
1000 to 3000 ft
1500m to 5 km
500 to 1000 ft
800 to 1500m
200 to 500 ft
< 800m
< 200 ft
Symbols :   Thunderstorms  Fog  Heavy snow  Heavy precipitations  Wind > 20 kt






- Airport Elevation : 1334 ft
- IATA code : TMW


YSTW - Tamworth

CURRENT METAR :
  • 182100Z AUTO 17003KT 9999 // NCD 02/02 Q1029 RF00.0/000.0

EXPIRED METARs :
  • 182030Z AUTO 13006KT 9999 // NCD 03/03 Q1029 RF00.0/000.0
  • 182000Z AUTO 15005KT 9999 // NCD 02/02 Q1028 RF00.0/000.0
  • 181930Z AUTO 15005KT 9999 // NCD 03/03 Q1028 RF00.0/000.0
  • 181900Z AUTO 14006KT 9999 // NCD 03/03 Q1028
  • 181830Z AUTO 13006KT 9999 // NCD 03/03 Q1028 RF00.0/000.0

TAF TAF YSTW
Valid from the 18 at 18:00 until the 19 at 12:00 UTC


181707Z 1818/1912 10006KT CAVOK
PROB30 1818/1822 0500 FZFG BKN001
YBBB FIR / Oceania



MET'MAP, your aeronautical weather chart ! - Copyright ORBIFLY December 2007 - Disclaimer

ORBIFLY MET'MAP TEAM :

Programming & Development : Alexandra Zaïnal
Concept & original design : Baudouin d'Aumeries
Assistance for programming : Marc-Olivier Méhu
Technical & hardware support : Manuel Goepfert

Contact : metmap@orbifly.com




SOURCES & CREDITS :

   NOAA       Earth
Advisory